Flag for USA

Past Weather in Tulare, California, USA — Yesterday and Last 2 Weeks

Now
91 °F

Sunny.


Feels Like: 90 °F
Forecast: 97 / 60 °F
Wind: 5 mph from Northeast

Location: Visalia Municipal

Current Time: Jul 14, 2020 at 8:24:35 pm

Latest Report: Jul 14, 2020 at 7:56 pm


Visibility: 10 mi

Pressure: 29.80 "Hg

Humidity: 32%

Dew Point: 57 °F

Location of TulareLocation

Past Weather in Tulare — Graph

°F

Tulare Temperature Yesterday

Maximum temperature yesterday: 102 °F (at 5:56 pm)
Minimum temperature yesterday: 67 °F (at 5:56 am)
Average temperature yesterday: 84 °F

High & Low Weather Summary for the Past Weeks

 TemperatureHumidityPressure
High105 °F (Jul 12, 5:56 pm)87% (Jul 3, 5:56 am)30.04 "Hg (Jul 3, 5:56 am)
Low56 °F (Jul 7, 5:56 am)13% (Jul 8, 5:56 pm)29.70 "Hg (Jul 1, 5:56 pm)
Average80 °F44%29.87 "Hg
* Reported Jun 29 6:56 pm — Jul 14 6:56 pm, Tulare. Weather by CustomWeather, © 2020

Note: Actual official high and low records may vary slightly from our data, if they occured in-between our weather recording intervals... More about our weather records

Tulare Weather History for the Previous 24 Hours

Scroll right to see more
 ConditionsComfort  
Time TempWeatherWind HumidityBarometerVisibility
6:56 pm
Tue, Jul 14
94 °FSunny.5 mph32%29.80 "Hg10 mi
5:56 pm95 °FSunny.3 mph26%29.80 "Hg10 mi
4:56 pm95 °FSunny.6 mph26%29.81 "Hg10 mi
3:56 pm94 °FSunny.6 mph26%29.83 "Hg10 mi
2:56 pm94 °FSunny.7 mph31%29.85 "Hg10 mi
1:56 pm91 °FSunny.7 mph31%29.86 "Hg10 mi
12:56 pm89 °FSunny.No wind27%29.88 "Hg10 mi
11:56 am86 °FSunny.7 mph40%29.89 "Hg10 mi
10:56 am81 °FSunny.3 mph49%29.90 "Hg10 mi
9:56 am78 °FSunny.5 mph48%29.90 "Hg9 mi
8:56 am74 °FSunny.No wind50%29.90 "Hg10 mi
7:56 am69 °FSunny.No wind57%29.89 "Hg10 mi
6:56 am66 °FSunny.No wind65%29.87 "Hg10 mi
5:56 am63 °FSunny.5 mph68%29.86 "Hg10 mi
4:56 am66 °FClear.6 mph61%29.84 "Hg10 mi
3:56 am67 °FClear.6 mph57%29.83 "Hg10 mi
2:56 am68 °FClear.6 mph57%29.83 "Hg10 mi
1:56 am68 °FClear.5 mph65%29.83 "Hg10 mi
12:56 am71 °FClear.No wind53%29.83 "Hg10 mi
11:56 pm
Mon, Jul 13
76 °FClear.3 mph39%29.83 "Hg10 mi
10:56 pm79 °FClear.3 mph39%29.82 "Hg10 mi
9:56 pm80 °FClear.No wind45%29.79 "Hg10 mi
8:56 pm83 °FClear.6 mph43%29.77 "Hg10 mi
Weather by CustomWeather, © 2020

See weather overview